Preview of NWS' New Version of Forecast
This preview is not operational and should not be used for support decisions.

Regional Weather Roundup (RWR)

Issued by National Weather Service (NWS)

                            
000
ASUS45 KABQ 182010
RWRNM 
NEW MEXICO REGIONAL WEATHER ROUNDUP
NATIONAL WEATHER SERVICE ALBUQUERQUE NM
100 PM MST FRI JAN 18 2019

NOTE: "FAIR" MEANS FEW OR NO CLOUDS BELOW 12,000 FEET AGL WITH NO
       SIGNIFICANT WEATHER OR OBSTRUCTIONS TO VISION.

      THIS PRODUCT IS RELEASED AS TWO VERSIONS.  ONE VERSION NEAR
      THE TOP OF THE HOUR CONTAINING PRELIMINARY DATA FROM ALBUQUERQUE
      AND OTHER STATIONS.  A FINAL VERSION WITH ADDITIONAL DATA IS 
      ISSUED ABOUT 10 MINUTES AFTER THE HOUR.
 
NMZ501-503-504-510>518-182100-
NORTHWEST PLATEAU/NORTHCENTRAL MOUNTAINS
  
CITY           SKY/WX    TMP DP  RH WIND       PRES   REMARKS
FARMINGTON     FAIR      43  25  49 NW24G37   29.98F                  
LOS ALAMOS     FAIR      37  18  45 W26G36    29.84F WCI  26          
SANTA FE       FAIR      41  23  48 W20       29.86F                  
TAOS           FAIR      35  29  78 CALM      29.85S                  
ANGEL FIRE     LGT SNOW  29  22  74 W17G23    29.81R WCI  18          

$$
NMZ402-403-502-505>509-182100-
WESTCENTRAL MOUNTAINS/SOUTHWEST MOUNTAINS
  
CITY           SKY/WX    TMP DP  RH WIND       PRES   REMARKS
GALLUP         FAIR      39  26  59 W18G28    30.06F WCI  30          
GRANTS         PTSUNNY   40  26  57 NW31G45   30.02F WCI  29          
SILVER CITY    FAIR      55  33  44 W30G43    30.05F                  

$$
NMZ407-409-411-412-182100-
SOUTHERN DESERTS
  
CITY           SKY/WX    TMP DP  RH WIND       PRES   REMARKS
DEMING         FAIR      62  35  36 W32G40    30.03F                  
LAS CRUCES     FAIR      64  34  32 W38G46    29.96F HAZE             
ALAMOGORDO     FAIR      61  32  33 W18G25    29.90F                  
T OR C         PTSUNNY   52  28  39 NW28G40   29.98S                  

$$
NMZ519>523-182100-
CENTRAL VALLEYS/CENTRAL HIGHLANDS
  
CITY           SKY/WX    TMP DP  RH WIND       PRES   REMARKS
ALBUQUERQUE    FAIR      48  22  35 W30G37    29.94F                  
DOUBLE EAGLE   MOSUNNY   45  25  45 NW23G38   29.95F                  
MORIARTY ARPT  FAIR      44  31  58 W23G31    29.91R                  
CLINES CORNERS FAIR      38  26  62 NW33G48   29.86F WCI  25          
BELEN          FAIR      48  26  41 W24       29.97F                  
SOCORRO        CLOUDY    49  26  39 NW18G25   29.99F                  

$$
NMZ524>526-539-540-182100-
SOUTHCENTRAL MOUNTAINS
  
CITY           SKY/WX    TMP DP  RH WIND       PRES   REMARKS
RUIDOSO        LGT SNOW  32  28  86 NW21G35   29.95R WCI  20          

$$
NMZ527>531-182100-
NORTHEAST HIGHLANDS/NORTHEAST PLAINS
  
CITY           SKY/WX    TMP DP  RH WIND       PRES   REMARKS
LAS VEGAS      FAIR      44  19  36 NW26G35   29.75F                  
RATON          CLOUDY    39  27  62 NE24G33   29.72R WCI  28          
CLAYTON        FAIR      50  24  36 N24G33    29.64S                  

$$
NMZ532>537-182100-
EASTCENTRAL PLAINS
  
CITY           SKY/WX    TMP DP  RH WIND       PRES   REMARKS
SANTA ROSA     FAIR      51  27  39 W33G44    29.73F                  
TUCUMCARI      FAIR      63  25  23 W37G45    29.60F                  
CANNON AFB     FAIR      58  29  33 W30G40    29.70F                  
CLOVIS AIRPORT FAIR      60  31  33 W32G41    29.68F                  

$$
NMZ028-029-538-182100-
SOUTHEAST PLAINS
  
CITY           SKY/WX    TMP DP  RH WIND       PRES   REMARKS
ROSWELL        PTSUNNY   55  37  50 NW33G46   29.80F                  
ARTESIA        FAIR      68  30  24 W33       29.80F                  
CARLSBAD       FAIR      68  35  29 W26G45    29.79F                  
HOBBS          MOSUNNY   66  32  28 W28G41    29.79F                  


$$